Location: Castelbiague
(43.0361°N, 0.9246°E)
Time: 08:25:25
(UTC+00:00)

Meteor 1-21 Rocket - Pass Details

Date: 17 June 2021
Orbit: 834 x 906 km, 81.2° (Epoch: 26 July)

Event Time Altitude Azimuth Distance (km) Brightness Sun altitude
Exits shadow 23:33:20 52° 201° (SSW) 1,052 4.3 -23.3°
Maximum altitude 23:34:47 81° 280° (W) 870 4.2 -23.4°
Drops below altitude 10° 23:40:31 10° 8° (N) 2,520 7.7 -23.4°
Sets 23:42:59 0° 10° (N) 3,473 8.7 -23.5°
